Regional Weather Roundup
Issued by NWS

Home | Current Version | Previous Version | Graphics & Text | Print | Product List | Glossary Off
Versions: 1 2 3 4 5 6 7 8 9 10 11 12 13 14 15 16 17 18 19 20 21 22 23 24 25 26 27

000
ASUS45 KBOU 240207
RWRCO

WEATHER ROUNDUP FOR COLORADO
NATIONAL WEATHER SERVICE DENVER/BOULDER CO
800 PM MDT SUN JUL 23 2017

NOTE: "FAIR" INDICATES FEW OR NO CLOUDS BELOW 12000 FEET WITH NO
SIGNIFICANT WEATHER AND/OR OBSTRUCTIONS TO VISIBILITY.

COZ001>005-013-030-031-240300-
...NORTHWEST COLORADO...

CITY           SKY/WX    TMP DP  RH WIND       PRES   REMARKS
CRAIG          FAIR      82  44  26 CALM      30.10S
HAYDEN         FAIR      82  30  15 W5        30.14R
MEEKER         FAIR      83  34  17 N7        30.12S
RABBIT EARS PA FAIR      64  28  25 N7        30.51S
STEAMBOAT SPGS FAIR      81  34  18 CALM      30.17R
WALDEN         FAIR      68  45  42 SE8       30.30R
$$

COZ006>008-011-240300-
...WEST CENTRAL VALLEYS...

CITY           SKY/WX    TMP DP  RH WIND       PRES   REMARKS
GRAND JUNCTION FAIR      90  45  21 S21       29.98R
MONTROSE       FAIR      77  46  33 SE20      30.12F
EAGLE          FAIR      83  43  24 NW8       30.16R
RIFLE          FAIR      92  28  10 W6        30.02S
DELTA          FAIR      83  45  26 NE7       30.09F
NUCLA          FAIR      79  45  29 S5        30.19S
$$

COZ017>023-064>068-240300-
...SOUTHWEST COLORADO...

CITY           SKY/WX    TMP DP  RH WIND       PRES   REMARKS
DURANGO        FAIR      72  47  40 SW3       30.20S
CORTEZ         FAIR      79  51  37 NE13      30.14S
PAGOSA SPRINGS MOCLDY    74  44  34 W5        30.30R
TELLURIDE      FAIR      61  46  56 CALM      30.43S
WOLF CREEK PAS FAIR      54  36  50 SE5       30.69R
$$

COZ009-010-012-014-032>034-037-058>063-240300-
...CENTRAL COLORADO...

CITY           SKY/WX    TMP DP  RH WIND       PRES   REMARKS
ASPEN          LGT RAIN  69  46  43 SE20G25   30.31R
BUENA VISTA    CLOUDY    66  43  43 S13G21    30.38R THUNDER
COPPER MTN     DRIZZLE   54  37  54 S28G35    30.64F
BERTHOUD PASS  FAIR      46  34  61 SE23      30.69S
COTTONWOOD PAS FAIR      63  37  39 SE14G23   30.52R THUNDER
GUNNISON       LGT RAIN  62  52  69 N16G24    30.34R
KREMMLING      FAIR      81  34  18 SE10      30.23R
LEADVILLE      MOCLDY    61  37  41 S8        30.49R
MONARCH PASS   LGT RAIN  50  41  71 NE23G29   30.75F
SALIDA         FAIR      69  49  48 NW12G21   30.40R
SUNLIGHT       CLOUDY    63  36  36 SW5       30.55S
WILKERSON PASS FAIR      50  37  62 S13G18    30.64F
$$

COZ069>075-240300-
...SAN LUIS VALLEY/SANGRE DE CRISTO MOUNTAINS...

CITY           SKY/WX    TMP DP  RH WIND       PRES   REMARKS
ALAMOSA        CLOUDY    73  48  41 E6        30.29R
DEL NORTE      MOCLDY    68  46  45 S3        30.33S
LA VETA PASS   NOT AVBL
SAGUACHE         N/A    N/A N/A N/A MISG        N/A
$$

COZ035-036-038>040-240300-
...NORTHERN COLORADO FRONT RANGE...

CITY           SKY/WX    TMP DP  RH WIND       PRES   REMARKS
DENVER INTL AP FAIR      81  46  29 S8        30.11S
DMNS CITY PARK   N/A     81  43  25 S3G12     30.11S
AURORA         PTCLDY    80  49  33 S12       30.14S
FRONT RANGE AP FAIR      84  43  23 SE14      30.14S
ERIE MUNI ARPT FAIR      85  40  20 S7        30.08S
BOULDER MUN AP FAIR      82  45  26 SE5       30.09R
CENTENNIAL     MOCLDY    80  48  32 S9        30.15S
BROOMFIELD     FAIR      82  41  23 S8        30.13S
FORT COLLINS   NOT AVBL
LONGMONT       FAIR      86  45  24 S6        30.09S
$$

COZ041-046-047-076>085-087-088-240300-
...PIKES PEAK/PALMER DIVIDE AND SOUTHERN FOOTHILLS...

CITY           SKY/WX    TMP DP  RH WIND       PRES   REMARKS
COLO. SPRINGS  FAIR      78  50  37 SE14      30.22R
A. F. ACADEMY  FAIR      73  48  40 CALM      30.23R
SCHRIEVER AFB  FAIR      71  49  46 S10       30.23R
CHEYENNE MTN   MOCLDY    74  48  40 SE15G21   30.23R
ELLICOTT       FAIR     N/A N/A N/A SE12      30.21R
FALCON           N/A     69  50  51 SE5       30.28S
FORT CARSON    MOCLDY    79  51  38 SE14      30.18R
LIMON          FAIR      77  50  38 SE14      30.16S
MONUMENT HILL  FAIR      68  50  52 S8        30.29S
CANON CITY     PTCLDY    82  54  36 E12       30.13S
WALSENBURG     NOT AVBL
TRINIDAD       MOCLDY    77  53  43 S13       30.19R
$$

COZ042>045-048>051-090-091-240300-
...NORTHEAST COLORADO...

CITY           SKY/WX    TMP DP  RH WIND       PRES   REMARKS
GREELEY ARPT   FAIR      83  56  39 SE7       30.05S
AKRON          FAIR      81  49  32 SE14      30.10R
BURLINGTON     FAIR      75  57  53 SE8       30.09S
WRAY           NOT AVBL
YUMA           FAIR      75  46  35 S7        30.07R
STERLING       NOT AVBL
HOLYOKE        FAIR      79  57  47 SE6       30.04S
FORT MORGAN    FAIR      80  46  29 SE9       30.07S
$$

COZ086-089-092>099-240300-
...SOUTHEAST COLORADO...

CITY           SKY/WX    TMP DP  RH WIND       PRES   REMARKS
PUEBLO         FAIR      84  50  30 SE12      30.08S
LA JUNTA       FAIR      84  56  38 MISG      30.07R
LAMAR          FAIR      82  59  45 SE8       30.04R
SPRINGFIELD      N/A     78  61  55 E8        30.10R
$$




USA.gov is the U.S. government's official web portal to all federal, state and local government web resources and services.